Theta_e
296 300 302 301 301 302 297 299 295 297 296 298 300 308 314 319 321 321 321 322 323 325 330 332 336 338 341 345 351 353 354 354 353 354 355 357 356 354 352 351 352 347 346 345
294 301 302 300 302 303 302 301 300 296 296 301 304 306 311 316 318 318 316 320 320 326 330 333 336 338 341 343 350 353 353 354 356 356 355 355 356 356 353 352 351 348 346 344
287 297 299 296 301 302 302 304 302 297 299 303 304 309 311 315 316 318 317 318 322 326 330 334 336 339 340 343 348 352 352 354 355 355 355 356 356 356 355 352 351 348 345 344
288 291 289 300 306 306 302 303 305 303 303 305 306 306 313 313 316 318 317 319 324 327 329 334 336 339 342 343 345 350 351 353 354 355 354 356 356 355 355 355 351 350 346 345
287 289 295 302 302 303 299 300 307 304 306 307 308 308 314 316 312 309 314 316 320 327 331 331 334 336 339 340 343 344 348 350 353 354 353 355 354 354 354 355 353 352 349 346
292 288 289 298 306 311 308 297 316 308 308 310 307 300 306 319 320 319 319 317 315 324 331 336 337 335 336 337 340 342 344 346 352 353 354 353 355 355 355 355 353 353 350 348
292 291 295 305 310 310 298 299 317 316 314 313 311 309 317 321 319 319 326 324 318 314 320 333 338 338 335 336 337 341 345 346 347 352 353 354 356 357 355 354 353 352 347 346
295 293 290 313 314 301 306 316 318 317 316 317 317 323 323 324 321 320 322 331 327 319 316 318 334 342 337 336 340 342 342 343 346 350 353 354 357 356 354 353 349 345 341 339
299 300 308 310 317 323 325 323 324 324 324 328 327 328 332 335 337 338 340 342 343 337 343 343 330 343 341 341 341 344 344 346 349 351 353 357 356 354 350 348 345 340 339 337
303 306 310 310 315 323 323 322 323 325 327 329 327 330 332 335 336 338 341 343 345 345 344 344 345 343 342 345 345 348 347 354 356 356 355 356 354 352 348 343 340 339 336 334
304 309 312 313 312 317 322 323 322 322 322 323 327 326 331 332 334 337 337 339 342 344 346 346 347 347 352 353 354 353 354 353 351 347 339 322 320 333 339 327 337 337 336 336
304 309 310 309 313 316 314 315 318 319 319 321 322 321 326 326 330 334 336 338 338 338 338 341 343 342 345 349 350 348 340 338 335 330 326 324 322 316 306 305 310 310 316 325
310 313 310 313 314 314 313 315 316 316 316 317 318 321 322 322 325 327 333 335 335 335 337 339 341 340 341 340 341 341 335 332 330 328 328 326 324 323 317 313 305 299 300 304
316 313 308 311 310 315 315 316 317 317 318 318 318 321 324 325 327 328 329 332 334 335 334 336 338 338 340 339 336 336 333 320 330 329 327 327 326 321 321 322 318 311 300 301
314 315 311 313 315 315 316 316 315 314 315 314 316 320 322 323 325 327 330 333 334 333 332 334 333 334 337 336 335 335 335 333 331 330 327 323 322 321 319 318 315 308 305 302
314 314 313 312 312 313 314 315 314 314 314 316 313 316 317 318 319 324 328 329 328 326 328 331 332 334 334 331 328 328 331 327 330 331 328 326 323 320 318 315 312 312 313 309
309 307 309 309 312 313 313 315 315 315 315 313 316 317 317 317 316 314 315 323 325 324 323 323 326 327 328 328 325 323 325 327 325 329 330 329 325 322 320 315 313 310 311 308
312 312 312 311 311 313 314 315 316 317 314 317 318 320 318 317 312 311 315 312 314 314 315 320 324 325 324 325 322 322 324 324 325 324 323 323 324 324 322 318 315 314 313 307
312 313 315 316 315 314 315 315 316 317 317 317 317 316 318 321 319 316 318 318 317 317 315 318 322 320 320 323 324 320 321 321 320 320 320 319 321 322 322 320 318 317 314 309
314 315 316 316 316 314 313 312 313 314 315 316 314 315 315 318 321 320 318 315 318 320 322 323 325 323 321 321 323 322 322 321 320 319 319 319 318 318 321 317 320 318 315 311
313 314 313 313 313 314 313 312 311 310 311 316 315 315 314 314 318 318 313 311 313 316 314 318 320 319 318 321 322 323 324 322 322 320 320 319 318 320 320 320 321 319 316 312
310 310 310 311 309 309 309 311 312 313 312 314 316 315 316 314 315 313 309 306 308 310 309 308 312 314 313 319 315 323 324 323 320 318 317 316 316 316 315 315 316 316 313 312
307 308 308 310 307 306 307 308 310 309 311 312 313 313 313 312 310 311 309 311 309 309 310 309 311 312 312 312 312 311 319 319 317 316 315 317 315 314 314 314 314 315 317 316
305 305 305 304 304 306 306 305 311 311 309 308 310 313 309 309 310 311 308 309 310 310 310 309 311 310 310 311 311 310 309 308 306 313 314 308 310 308 312 312 312 313 314 312
302 301 301 300 299 300 302 303 307 307 305 304 305 306 307 307 309 309 308 307 307 310 311 310 311 309 310 310 311 311 310 310 309 308 306 305 302 302 302 302 305 309 311 313
300 299 299 297 297 300 301 301 299 302 304 303 305 306 308 308 306 307 305 305 305 306 306 303 304 305 307 309 310 310 310 310 310 310 309 309 310 310 308 307 304 302 302 302
298 298 298 298 298 298 298 298 299 298 299 300 301 303 302 302 302 302 301 301 301 302 301 301 301 301 300 300 304 304 306 307 303 311 310 310 310 310 310 309 306 305 303 302
Wind_Speed
13 15 21 13 13 21 23 24 22 14 13 10 9 9 9 14 13 14 19 17 15 18 17 19 20 21 20 19 20 22 22 22 22 20 19 17 16 16 15 15 14 11 12 11
8 10 23 23 19 19 23 23 19 6 8 11 13 9 7 11 13 14 10 8 9 17 23 23 22 21 22 22 22 22 21 23 20 19 18 18 17 16 15 13 14 10 12 12
8 6 18 20 32 16 11 16 17 15 10 10 8 8 10 10 8 11 9 11 11 17 21 21 23 25 23 22 20 22 23 20 20 19 19 19 17 15 15 16 11 11 11 12
8 7 16 24 18 20 10 8 10 12 11 13 13 11 10 9 10 12 9 7 9 10 12 20 20 19 19 18 20 21 22 20 19 19 19 17 17 17 15 13 15 12 12 14
4 4 8 4 9 14 10 11 8 9 11 13 11 7 5 4 2 8 10 9 7 10 11 7 15 18 16 16 18 19 20 20 20 20 19 18 19 17 15 14 13 13 13 14
6 4 7 6 5 14 7 4 5 10 10 10 8 6 5 4 3 4 1 5 7 8 9 17 15 12 18 21 19 20 20 22 20 19 19 19 18 17 14 14 13 11 12 13
12 10 11 9 6 4 10 8 1 4 7 8 6 7 7 5 2 2 2 2 5 4 6 13 14 17 18 15 19 23 22 20 18 19 20 18 16 12 14 14 12 12 11 9
4 6 9 26 14 7 7 3 7 5 4 10 8 8 7 5 4 5 2 1 1 2 8 7 8 17 18 19 23 21 17 15 16 16 14 13 17 14 14 13 12 10 10 6
6 6 13 12 7 6 8 10 4 6 8 13 9 7 6 7 8 8 6 7 7 3 5 2 9 12 17 22 17 14 15 16 15 15 16 16 17 15 13 12 10 10 10 11
5 1 9 16 14 8 14 12 11 13 10 10 13 8 10 9 8 8 7 7 6 7 8 4 4 8 10 6 12 16 17 16 14 15 14 14 11 12 12 11 11 12 10 8
2 10 13 11 14 7 12 13 15 17 15 11 12 9 10 9 8 7 7 7 6 7 7 8 9 5 8 10 13 11 12 15 15 11 11 9 7 5 8 2 11 12 11 11
1 4 4 7 13 10 21 17 13 13 17 14 13 11 9 10 6 6 7 7 8 7 6 7 10 11 12 2 17 19 15 10 7 8 11 8 10 11 20 21 10 12 15 11
2 2 4 0 9 14 20 19 20 18 13 12 12 12 12 7 6 6 7 9 8 6 6 5 7 11 12 15 6 11 11 10 10 11 7 11 10 14 9 14 9 16 12 11
10 7 6 9 8 14 19 18 18 16 14 11 11 14 11 12 8 8 8 7 8 9 8 9 10 7 9 3 3 10 12 5 8 9 10 10 10 19 10 8 5 3 12 8
9 6 5 7 11 12 13 16 18 15 13 12 8 11 14 14 13 10 8 10 12 13 12 14 13 11 7 6 7 12 14 5 4 5 5 9 11 12 8 8 5 7 4 8
14 9 8 9 9 9 11 12 17 11 6 7 6 9 7 9 12 12 12 12 13 12 12 13 11 9 5 7 7 5 7 15 9 8 8 9 8 7 8 6 6 5 5 6
14 10 9 9 9 8 8 6 6 8 4 7 6 5 9 8 10 11 10 9 11 11 10 10 11 13 13 10 7 4 4 4 7 6 7 8 8 8 7 7 6 4 5 6
9 8 5 6 4 7 5 13 6 4 0 4 4 5 7 10 7 7 7 7 8 8 9 8 10 11 13 14 9 4 4 5 5 5 5 5 7 9 10 8 7 7 5 6
7 8 10 16 8 13 5 7 6 5 6 5 7 7 7 8 6 5 6 8 8 8 8 6 12 12 10 14 11 6 5 5 5 4 5 6 3 4 6 8 6 5 6 6
8 8 11 14 10 7 7 6 8 9 7 7 7 8 6 6 7 9 8 9 6 3 5 6 7 8 7 7 8 5 5 4 5 3 4 5 6 5 4 6 9 8 6 6
12 11 11 11 8 8 7 6 7 7 7 8 9 11 9 9 9 6 8 6 7 6 8 8 3 2 2 2 5 3 1 2 3 3 4 5 5 6 5 5 3 5 7 6
8 9 8 8 7 7 6 6 7 7 8 8 8 8 11 10 7 7 5 5 2 6 4 4 4 4 2 6 4 6 5 4 4 3 2 4 5 4 4 4 6 6 5 6
8 8 8 8 7 5 7 7 7 9 9 7 7 7 6 2 2 4 4 5 4 6 5 4 8 12 12 7 6 3 3 5 5 4 4 5 5 4 4 5 4 5 5 5
16 15 13 13 16 14 12 9 9 9 9 9 7 6 5 4 5 4 3 4 7 7 4 7 10 13 11 7 8 9 7 5 1 2 3 5 4 4 5 5 5 5 5 5
11 13 13 14 13 10 13 10 10 8 9 9 9 7 8 6 5 3 5 5 8 8 7 10 14 14 9 8 10 9 8 8 7 6 6 5 5 4 3 2 3 4 5 5
9 6 6 7 6 7 8 8 5 7 8 8 7 7 7 6 7 7 7 8 8 12 10 9 10 9 8 10 10 9 8 8 9 9 8 7 6 6 7 8 7 7 6 6
8 9 8 9 7 6 5 8 10 9 8 7 6 6 6 8 10 10 10 9 8 8 8 9 9 11 10 9 8 7 7 6 7 6 6 6 7 8 7 8 8 7 8 9
Wind_Direction
290 260 207 198 193 210 213 218 209 226 206 231 233 205 222 231 207 202 194 190 180 201 199 196 190 191 193 192 190 188 190 195 198 198 201 202 202 201 199 201 203 189 186 188
274 254 229 217 222 227 215 215 228 169 208 186 231 193 222 206 221 195 210 202 195 222 197 190 187 189 190 191 190 187 194 202 194 197 198 201 200 198 196 195 200 182 184 180
278 311 217 233 215 203 206 215 210 203 196 187 191 197 200 220 213 231 210 184 183 201 194 195 190 187 189 190 183 189 198 197 198 194 198 200 197 194 196 196 179 181 175 176
272 309 214 220 211 217 202 217 215 226 213 191 203 203 195 176 189 209 221 249 163 165 199 194 193 191 189 185 185 190 197 197 196 196 196 195 195 198 192 187 189 179 181 188
259 261 269 156 187 184 168 243 203 203 222 208 196 80 360 299 234 195 181 195 183 168 173 186 197 187 183 181 190 194 196 198 197 196 193 190 197 195 188 181 187 187 187 186
259 314 262 214 226 126 118 211 276 171 177 152 126 124 229 246 144 127 215 199 199 189 183 175 196 200 179 183 188 196 199 202 196 193 192 192 191 191 186 185 187 183 184 185
254 247 273 325 320 104 118 224 112 119 137 135 117 176 184 190 265 251 233 31 168 212 211 184 181 171 186 196 194 202 204 200 191 190 190 189 183 178 181 184 173 178 170 160
281 281 257 354 320 153 180 151 123 91 103 94 87 80 86 100 145 213 240 328 167 169 203 228 190 177 186 190 203 202 196 195 194 192 184 177 174 174 173 169 170 157 139 122
148 238 309 289 314 337 91 98 30 72 104 106 93 72 74 73 62 58 35 16 353 196 154 134 178 204 185 205 193 179 177 184 178 177 172 172 172 165 159 165 152 164 154 139
60 281 1 351 323 17 49 70 88 80 66 85 102 87 81 73 64 65 48 42 25 27 0 349 185 189 216 186 182 169 174 164 163 162 157 158 161 163 156 158 164 155 149 132
298 309 341 341 350 308 66 69 69 70 73 67 87 60 81 68 56 59 54 37 39 52 48 22 2 358 139 142 143 140 144 148 138 132 125 104 79 101 149 121 171 150 142 150
156 328 269 311 324 54 68 55 32 48 71 59 61 69 66 61 48 50 55 46 40 33 41 40 37 21 10 354 142 136 130 130 109 119 121 107 101 78 27 67 5 103 124 148
143 105 148 324 29 34 60 60 55 47 28 47 52 54 57 61 34 47 56 52 46 8 31 47 82 69 50 333 295 116 123 113 103 112 102 121 111 82 73 28 55 55 73 107
158 163 75 44 50 49 56 48 57 54 38 35 31 48 47 54 40 35 41 63 49 43 36 39 49 52 74 186 9 85 84 44 111 108 140 138 137 112 137 179 154 82 29 49
154 109 116 99 89 67 77 65 48 38 18 22 25 46 40 43 41 31 30 51 62 55 39 53 43 32 37 65 90 97 104 115 102 111 111 121 113 116 131 122 121 111 118 54
112 124 118 89 85 65 58 58 90 44 356 291 40 55 46 45 48 48 48 48 60 54 35 33 39 38 21 64 67 74 97 117 129 134 125 102 105 109 104 110 119 134 156 120
118 102 94 90 93 76 67 81 71 78 315 354 13 41 72 54 47 39 29 34 62 57 53 44 43 37 36 34 48 41 80 77 95 97 122 126 129 132 134 137 144 187 137 155
53 74 67 82 112 97 62 51 48 87 256 315 354 52 65 72 62 44 38 29 37 46 40 45 46 48 42 29 18 38 76 100 99 102 86 100 145 158 144 162 159 157 152 158
33 59 51 57 55 66 68 72 64 70 59 59 57 49 67 69 68 63 44 41 29 36 4 29 59 49 40 23 29 8 42 75 71 80 97 95 115 132 129 146 146 154 154 152
123 153 118 108 101 102 77 50 59 55 37 56 73 72 69 55 68 72 65 54 31 24 34 49 42 50 44 26 15 21 13 35 96 104 111 103 101 118 137 163 153 152 156 160
64 73 78 76 66 58 56 51 62 51 40 61 74 74 55 49 58 36 49 55 15 56 48 48 69 118 130 237 304 7 355 342 49 128 137 135 120 113 133 127 157 159 168 176
53 52 55 63 64 55 49 49 49 45 51 65 70 66 73 62 54 55 39 95 62 88 80 57 24 358 328 244 200 185 176 205 193 198 140 120 127 162 180 154 164 164 174 178
47 42 41 40 50 53 44 40 41 49 47 47 51 56 72 87 107 90 59 351 38 56 43 42 29 21 24 26 47 42 201 207 171 192 182 149 159 171 165 163 162 159 179 179
53 44 47 44 42 35 28 8 51 51 52 36 47 66 56 33 24 16 28 29 36 32 25 32 27 26 32 31 37 44 28 10 13 152 174 146 154 159 149 156 176 192 194 197
52 56 46 41 38 28 31 19 46 39 42 36 32 22 34 36 93 357 30 25 39 48 50 45 42 34 45 43 39 36 35 25 17 44 60 49 55 59 66 94 133 178 201 196
50 42 48 53 35 27 32 26 27 28 34 27 24 29 43 36 42 39 30 26 29 51 57 49 56 46 40 48 47 44 39 35 32 32 37 56 46 49 54 59 48 46 22 13
40 33 36 35 20 22 23 36 54 36 24 33 51 14 24 37 39 39 29 30 40 45 48 50 51 61 45 30 27 32 32 27 31 49 41 41 51 49 37 57 62 51 57 45